[Date Prev][Date Next][Thread Prev][Thread Next] - [Date Index][Thread Index][Author Index]
2 Line ISS Keps 12-14
- Subject: [sarex] 2 Line ISS Keps 12-14
- From: "Dave Larsen Ph.D." <doc@xxxxxxxxxxx>
- Date: Sat, 14 Dec 2002 02:16:45 -0800
ISS
1 25544U 98067A 02348.18379132 .00030540 00000-0 41306-3 0 4726
2 25544 51.6363 229.3635 0003282 266.1629 237.5131 15.57451428232048
----
Via the sarex mailing list at AMSAT.ORG courtesy of AMSAT-NA.
To unsubscribe, send "unsubscribe sarex" to Majordomo@amsat.org
AMSAT Home